Location: Butte
(46.0040°N, 112.5340°W)
Time: 22:55:47
(UTC-06:00)

Daily predictions for brighter satellites

Satellite Brightness Start Highest point End
(mag) Time Altitude Azimuth Time Altitude Azimuth Time Altitude Azimuth
Cosmos 2219 3.4 21:52:47 10° S 21:58:21 53° ESE 22:03:56 10° NE
Cosmos 1271 Rocket 4.2 21:57:01 10° NNE 22:00:06 23° ENE 22:03:13 10° SE
Cosmos 2237 Rocket 3.5 21:56:13 10° N 22:01:09 29° NE 22:06:04 10° ESE
Cosmos 2322 Rocket 4.4 21:59:10 10° NW 22:03:20 22° W 22:07:30 10° SSW
Cosmos 2333 4.5 21:57:43 10° NNW 22:03:24 60° ENE 22:09:05 10° SE
Cosmos 2322 4.3 21:59:28 10° NNW 22:05:05 58° WSW 22:10:39 10° S
Cosmos 405 4.0 22:02:39 10° NNW 22:06:11 48° W 22:09:40 10° S
CZ-4B R/B 4.2 22:04:41 10° NNE 22:09:36 38° E 22:14:24 10° SSE
Aureole 3 4.2 22:05:01 10° S 22:11:23 73° E 22:16:23 10° NNE
SL-14 R/B 4.0 22:08:08 10° SSE 22:11:45 35° E 22:15:26 10° NNE
MetOp-B 4.2 22:06:28 10° SSE 22:11:48 72° ENE 22:17:09 10° N
Cosmos 2360 Rocket 3.0 22:06:28 10° NW 22:11:55 50° WSW 22:17:20 10° S
PSLV R/B 3.1 22:12:05 10° SSE 22:15:09 89° W 22:18:12 10° NNW
NOSS 0 Rocket 4.5 22:09:25 10° NNW 22:15:23 48° NE 22:21:19 10° SE
Cosmos 1680 Rocket 4.2 22:12:56 10° NNW 22:18:02 52° WSW 22:23:06 10° S
Cosmos 1626 4.3 22:16:38 10° ESE 22:18:12 12° E 22:19:45 10° ENE
Meteor 1-27 4.3 22:13:46 10° N 22:19:29 72° ENE 22:25:04 10° SSE
Nadezhda 2 Rocket 4.5 22:16:16 10° S 22:22:24 84° E 22:28:32 10° N
H-2A R/B 3.3 22:17:48 10° SE 22:22:28 31° ENE 22:27:12 10° N
Cosmos 1674 3.9 22:19:21 10° SSW 22:23:02 44° WNW 22:26:46 10° N
SPOT 5 3.2 22:22:25 10° S 22:27:00 67° WSW 22:31:54 10° NNW
Cosmos 2151 3.5 22:24:09 10° SSW 22:28:18 60° W 22:32:29 10° N
YAOGAN 6 2.5 22:24:51 10° SSE 22:28:29 84° ENE 22:32:06 10° N
Lacrosse 4 Rocket 3.6 22:27:21 10° N 22:30:32 19° NE 22:33:43 10° E
Cosmos 1898 Rocket 3.6 22:27:54 10° S 22:32:56 56° ESE 22:38:03 10° NNE
SPOT 1/Viking Rocket 3.6 22:29:36 10° SSE 22:34:45 81° ENE 22:39:56 10° NNW
Cosmos 1300 2.8 22:30:58 10° NNW 22:34:50 76° W 22:38:39 10° S
Cosmos 2058 3.0 22:33:28 10° SSW 22:37:33 78° W 22:41:41 10° N
Cosmos 2227 Rocket 2.9 22:37:41 10° SSE 22:42:39 33° ESE 22:47:39 10° NE
Cosmos 2242 Rocket 3.6 22:38:24 10° N 22:42:53 73° E 22:46:51 13° SSE
Cosmos 292 Rocket 3.7 22:38:22 10° NNW 22:43:10 84° ENE 22:47:11 14° SSE
Cosmos 2150 Rocket 4.1 22:38:05 10° S 22:43:29 71° ESE 22:48:58 10° NNE
Cosmos 1862 Rocket 4.4 22:40:14 10° N 22:44:14 35° ENE 22:47:12 16° SE
Sich 1 3.0 22:40:51 10° S 22:45:16 77° E 22:49:40 10° NNE
CARTOSAT-1 4.3 22:45:15 15° SE 22:48:24 39° ENE 22:52:25 10° N
Meteor 1-11 4.3 22:44:13 10° SSW 22:50:00 84° WNW 22:55:45 10° N
Cosmos 1633 Rocket 3.0 22:46:04 10° S 22:50:27 82° E 22:54:51 10° N
COSMOS 2455 3.7 22:46:20 10° NNW 22:52:00 40° NE 22:57:11 12° ESE
Landsat 7 4.0 22:49:13 16° SSE 22:52:59 62° ENE 22:57:42 10° N
Cosmos 1346 4.1 22:52:16 21° SE 22:53:31 29° E 22:56:12 10° NNE
NOSS 3-1 (A) 3.4 22:48:13 10° SSW 22:54:07 76° SE 23:00:44 10° NE
USA 245 2.9 22:52:56 16° S 22:54:39 43° WSW 22:56:50 10° NNW
SL-16 R/B 3.3 22:50:22 10° NNW 22:55:31 34° NE 23:00:04 13° ESE
Cosmos 2333 Rocket 2.3 22:51:10 10° NNW 22:56:57 77° ENE 23:01:24 18° SSE
Cosmos 1455 2.7 22:53:34 10° N 22:57:14 44° ENE 22:59:31 20° SE
ERBS 3.0 22:57:25 10° SSW 23:00:36 33° SE 23:03:46 10° ENE
DELTA 2 DEB (DPAF) 4.1 23:03:05 18° SSE 23:06:27 88° ENE 23:10:58 10° NNW
COSMOS 2428 3.9 23:03:23 10° NW 23:08:31 36° WSW 23:13:39 10° S
ARGOS 3.5 23:03:47 12° S 23:08:41 63° WSW 23:14:03 10° NNW
Terra 2.0 23:05:35 19° SSE 23:08:51 62° ENE 23:13:34 10° N
Cosmos 2297 Rocket 2.8 23:05:33 16° SSE 23:09:26 37° ESE 23:14:36 10° NE
Cosmos 1726 3.5 23:06:10 10° NNW 23:09:40 36° W 23:13:08 10° SSW
DMSP B5D2-2 4.4 23:06:30 10° NNE 23:11:33 47° E 23:15:00 19° SSE
Cosmos 2219 Rocket 2.4 23:06:45 10° NNW 23:12:18 65° WSW 23:16:27 18° S
USA 32 4.3 23:07:59 10° N 23:13:14 70° W 23:17:50 13° S
IGS 5A 3.6 23:12:54 23° SSE 23:15:24 63° ENE 23:19:33 10° N
ATLAS 2AS CENTAUR R/B 3.2 23:09:22 10° S 23:16:33 51° ESE 23:24:15 10° NE
Spot 4 4.1 23:13:36 21° SE 23:16:42 59° ENE 23:21:30 10° N
BREEZE-M TANK 4.2 22:57:17 10° WSW 23:19:56 64° SSE 23:24:30 10° E
SL-08 RB Rocket 4.3 23:17:05 15° S 23:20:37 51° W 23:25:02 10° NNW
Tiangong 1 1.4 23:19:45 10° WSW 23:22:42 40° S 23:23:06 37° SSE
Cosmos 220 Rocket 4.2 23:18:45 10° SSW 23:23:07 73° WNW 23:27:36 10° NNE
Cosmos 1869 3.3 23:19:59 10° N 23:24:04 76° E 23:26:11 27° SSE
OAO 2 Rocket 4.5 23:22:01 10° SW 23:26:16 24° S 23:27:04 23° SSE
Meteor 1-4 Rocket 4.1 23:23:48 10° NNW 23:27:09 31° W 23:29:55 13° SSW
ATLAS 3B R/B 2.8 23:20:34 10° NW 23:27:41 71° NE 23:32:30 20° SE
Cosmos 1937 Rocket 3.8 23:24:50 10° SSW 23:30:02 67° WNW 23:35:14 10° NNE
Cosmos 1980 4.0 23:27:42 10° NNW 23:33:17 61° WSW 23:36:52 22° S
Okean 1-7 4.2 23:30:14 10° NNE 23:34:00 29° ENE 23:35:44 22° ESE
CZ-4C R/B 4.0 23:33:07 20° SSW 23:35:04 39° W 23:38:22 10° NNW
Cosmos 1271 Rocket 4.4 23:32:51 10° NNW 23:36:09 28° W 23:39:00 13° SSW
Cosmos 1241 Rocket 4.4 23:32:19 10° SSW 23:38:31 84° ESE 23:44:50 10° NE
Cosmos 990 Rocket 4.1 23:33:54 10° SSW 23:39:02 77° WNW 23:44:13 10° NNE
USA 238 DEB 4.4 23:32:59 10° NNW 23:39:48 49° NE 23:45:45 14° ESE
USA 238 4.5 23:33:05 10° NNW 23:39:54 48° NE 23:45:52 14° ESE
NOSS 3-1 (C) 4.4 23:34:33 10° WSW 23:40:24 50° NW 23:46:59 10° NNE
Cosmos 1470 Rocket 4.1 23:39:44 15° SSW 23:43:14 55° WNW 23:47:29 10° N
Cosmos 1933 Rocket 4.1 23:40:44 15° SSW 23:44:20 57° WNW 23:48:45 10° N
Cosmos 2237 Rocket 2.7 23:39:58 10° NW 23:45:32 54° WSW 23:48:54 23° S
Cosmos 1703 Rocket 3.7 23:41:12 10° N 23:45:33 61° E 23:47:23 32° SSE
Nadezhda 1 Rocket 4.4 23:41:14 10° NNW 23:47:11 56° W 23:51:47 17° SSW
Cosmos 2082 3.8 23:47:16 10° SSW 23:53:00 77° WNW 23:58:45 10° NNE
Cosmos 1626 2.9 23:50:49 20° SSW 23:53:09 50° WNW 23:56:50 10° N
